Time,TemperatureF,DewpointF,PressureIn,WindDirection,WindDirectionDegrees,WindSpeedMPH,WindSpeedGustMPH,Humidity,HourlyPrecipIn,Conditions,Clouds,dailyrainin,SolarRadiationWatts/m^2,SoftwareType,DateUTC
2013-03-01 00:02:00,49.2,47.5,30.41,SW,232,0.0,0.0,94,0.00,OVC,,0.00,0.0,WeatherDisplay:10.37,2013-03-01 08:02:00,
2013-03-01 00:07:00,49.1,47.4,30.41,SW,231,0.0,0.0,94,0.00,OVC,,0.00,0.0,WeatherDisplay:10.37,2013-03-01 08:07:00,
2013-03-01 00:12:00,49.1,47.4,30.41,SW,231,0.0,0.0,94,0.00,OVC,,0.00,0.0,WeatherDisplay:10.37,2013-03-01 08:12:00,
2013-03-01 00:17:00,49.1,47.4,30.41,SW,231,0.0,0.0,94,0.00,OVC,,0.00,0.0,WeatherDisplay:10.37,2013-03-01 08:17:00,
2013-03-01 00:22:00,49.1,47.4,30.41,SW,231,0.0,0.0,94,0.00,OVC,,0.00,0.0,WeatherDisplay:10.37,2013-03-01 08:22:00,
2013-03-01 00:27:00,49.0,47.3,30.41,SW,232,0.0,0.0,94,0.00,OVC,,0.00,0.0,WeatherDisplay:10.37,2013-03-01 08:27:00,
2013-03-01 00:32:00,49.1,47.4,30.41,SW,232,0.0,0.0,94,0.00,OVC,,0.00,0.0,WeatherDisplay:10.37,2013-03-01 08:32:00,
2013-03-01 00:37:00,49.1,47.4,30.41,SW,232,0.0,0.0,94,0.00,OVC,,0.00,0.0,WeatherDisplay:10.37,2013-03-01 08:37:00,
2013-03-01 00:42:00,49.1,47.4,30.41,SW,231,0.0,0.0,94,0.00,OVC,,0.00,0.0,WeatherDisplay:10.37,2013-03-01 08:42:00,
2013-03-01 00:47:00,49.1,47.4,30.41,SW,231,0.0,0.0,94,0.00,OVC,,0.00,0.0,WeatherDisplay:10.37,2013-03-01 08:47:00,
2013-03-01 00:52:00,49.1,47.4,30.41,SW,231,0.0,0.0,94,0.00,OVC,,0.00,0.0,WeatherDisplay:10.37,2013-03-01 08:52:00,
2013-03-01 00:57:00,49.2,47.5,30.41,SW,231,0.0,0.0,94,0.00,OVC,,0.00,0.0,WeatherDisplay:10.37,2013-03-01 08:57:00,
2013-03-01 01:02:00,49.2,47.5,30.41,SW,232,0.0,0.0,94,0.00,OVC,,0.00,0.0,WeatherDisplay:10.37,2013-03-01 09:02:00,
2013-03-01 01:07:00,49.1,47.4,30.41,SW,232,0.0,0.0,94,0.00,OVC,,0.00,0.0,WeatherDisplay:10.37,2013-03-01 09:07:00,
2013-03-01 01:12:00,49.1,47.4,30.42,SW,232,0.0,0.0,94,0.00,OVC,,0.00,0.0,WeatherDisplay:10.37,2013-03-01 09:12:00,
2013-03-01 01:17:00,49.0,47.3,30.42,SW,231,0.0,0.0,94,0.00,OVC,,0.00,0.0,WeatherDisplay:10.37,2013-03-01 09:17:00,
2013-03-01 01:22:00,49.0,47.3,30.42,SW,231,0.0,0.0,94,0.00,OVC,,0.00,0.0,WeatherDisplay:10.37,2013-03-01 09:22:00,
2013-03-01 01:27:00,48.9,47.2,30.42,SW,232,0.0,0.0,94,0.00,OVC,,0.00,0.0,WeatherDisplay:10.37,2013-03-01 09:27:00,
2013-03-01 01:32:00,48.8,47.2,30.42,SW,232,0.0,0.0,94,0.00,OVC,,0.00,0.0,WeatherDisplay:10.37,2013-03-01 09:32:00,
2013-03-01 01:37:00,48.8,47.2,30.41,SW,232,0.0,0.0,94,0.00,OVC,,0.00,0.0,WeatherDisplay:10.37,2013-03-01 09:37:00,
2013-03-01 01:42:00,48.7,47.1,30.42,SW,232,0.0,0.0,94,0.00,OVC,,0.00,0.0,WeatherDisplay:10.37,2013-03-01 09:42:00,
2013-03-01 01:47:00,48.8,47.2,30.42,SW,232,0.0,0.0,94,0.00,OVC,,0.00,0.0,WeatherDisplay:10.37,2013-03-01 09:47:00,
2013-03-01 01:52:00,48.7,47.1,30.42,SW,232,0.0,0.0,94,0.00,OVC,,0.00,0.0,WeatherDisplay:10.37,2013-03-01 09:52:00,
2013-03-01 01:57:00,48.7,47.1,30.41,SW,231,0.0,0.0,94,0.00,OVC,,0.00,0.0,WeatherDisplay:10.37,2013-03-01 09:57:00,
2013-03-01 02:02:00,48.7,47.1,30.41,SW,231,0.0,0.0,94,0.00,OVC,,0.00,0.0,WeatherDisplay:10.37,2013-03-01 10:02:00,
2013-03-01 02:07:00,48.6,47.0,30.41,SW,232,0.0,0.0,94,0.00,OVC,,0.00,0.0,WeatherDisplay:10.37,2013-03-01 10:07:00,
2013-03-01 02:12:00,48.6,47.0,30.41,SW,232,0.0,0.0,94,0.00,OVC,,0.00,0.0,WeatherDisplay:10.37,2013-03-01 10:12:00,
2013-03-01 02:17:00,48.5,46.9,30.41,SW,231,0.0,0.0,94,0.00,OVC,,0.00,0.0,WeatherDisplay:10.37,2013-03-01 10:17:00,
2013-03-01 02:22:00,48.4,46.8,30.41,SW,231,0.0,0.0,94,0.00,OVC,,0.00,0.0,WeatherDisplay:10.37,2013-03-01 10:22:00,
2013-03-01 02:27:00,48.4,46.8,30.41,SW,231,0.0,0.0,94,0.00,OVC,,0.00,0.0,WeatherDisplay:10.37,2013-03-01 10:27:00,
2013-03-01 02:32:00,48.4,46.8,30.41,SW,231,0.0,0.0,94,0.00,OVC,,0.00,0.0,WeatherDisplay:10.37,2013-03-01 10:32:00,
2013-03-01 02:37:00,48.4,46.8,30.41,SW,232,0.0,0.0,94,0.00,OVC,,0.00,0.0,WeatherDisplay:10.37,2013-03-01 10:37:00,
2013-03-01 02:43:00,48.5,46.9,30.41,SW,231,0.0,0.0,94,0.00,OVC,,0.00,0.0,WeatherDisplay:10.37,2013-03-01 10:43:00,
2013-03-01 02:48:00,48.5,46.9,30.41,SW,231,0.0,0.0,94,0.00,OVC,,0.00,0.0,WeatherDisplay:10.37,2013-03-01 10:48:00,
2013-03-01 02:53:00,48.6,47.0,30.41,SW,231,0.0,0.0,94,0.00,OVC,,0.00,0.0,WeatherDisplay:10.37,2013-03-01 10:53:00,
2013-03-01 02:58:00,48.6,47.0,30.41,SW,231,0.0,0.0,94,0.00,OVC,,0.00,0.0,WeatherDisplay:10.37,2013-03-01 10:58:00,
2013-03-01 03:03:00,48.7,47.1,30.41,SW,231,0.0,0.0,94,0.00,OVC,,0.00,0.0,WeatherDisplay:10.37,2013-03-01 11:03:00,
2013-03-01 03:08:00,48.7,47.1,30.40,SW,232,0.0,0.0,94,0.00,OVC,,0.00,0.0,WeatherDisplay:10.37,2013-03-01 11:08:00,
2013-03-01 03:13:00,48.7,47.1,30.40,SW,232,0.0,0.0,94,0.00,OVC,,0.00,0.0,WeatherDisplay:10.37,2013-03-01 11:13:00,
2013-03-01 03:18:00,48.6,47.0,30.40,SW,231,0.0,0.0,94,0.00,OVC,,0.00,0.0,WeatherDisplay:10.37,2013-03-01 11:18:00,
2013-03-01 03:23:00,48.5,46.9,30.40,SW,231,0.0,0.0,94,0.00,OVC,,0.00,0.0,WeatherDisplay:10.37,2013-03-01 11:23:00,
2013-03-01 03:28:00,48.4,46.8,30.40,SW,231,0.0,0.0,94,0.00,OVC,,0.00,0.0,WeatherDisplay:10.37,2013-03-01 11:28:00,
2013-03-01 03:33:00,48.4,46.8,30.40,SW,231,0.0,0.0,94,0.00,OVC,,0.00,0.0,WeatherDisplay:10.37,2013-03-01 11:33:00,
2013-03-01 03:38:00,48.4,46.8,30.41,SW,232,0.0,0.0,94,0.00,OVC,,0.00,0.0,WeatherDisplay:10.37,2013-03-01 11:38:00,
2013-03-01 03:43:00,48.5,46.9,30.41,SW,232,0.0,0.0,94,0.00,OVC,,0.00,0.0,WeatherDisplay:10.37,2013-03-01 11:43:00,
2013-03-01 03:48:00,48.5,46.9,30.40,SW,231,0.0,0.0,94,0.00,OVC,,0.00,0.0,WeatherDisplay:10.37,2013-03-01 11:48:00,
2013-03-01 03:53:00,48.5,46.9,30.40,SW,232,0.0,0.0,94,0.00,OVC,,0.00,0.0,WeatherDisplay:10.37,2013-03-01 11:53:00,
2013-03-01 03:58:00,48.5,46.9,30.40,SW,232,0.0,0.0,94,0.00,OVC,,0.00,0.0,WeatherDisplay:10.37,2013-03-01 11:58:00,
2013-03-01 04:03:00,48.4,46.8,30.40,SW,231,0.0,0.0,94,0.00,OVC,,0.00,0.0,WeatherDisplay:10.37,2013-03-01 12:03:00,
2013-03-01 04:08:00,48.2,47.7,30.40,SW,231,0.0,0.0,98,0.00,OVC,,0.00,0.0,WeatherDisplay:10.37,2013-03-01 12:08:00,
2013-03-01 04:13:00,48.0,46.1,30.40,SW,231,0.0,0.0,93,0.00,,,0.00,0.0,WeatherDisplay:10.37,2013-03-01 12:13:00,
2013-03-01 04:18:00,48.0,46.4,30.40,SW,231,0.0,0.0,94,0.00,,,0.00,0.0,WeatherDisplay:10.37,2013-03-01 12:18:00,
2013-03-01 04:23:00,48.0,46.4,30.40,SW,231,0.0,0.0,94,0.00,,,0.00,0.0,WeatherDisplay:10.37,2013-03-01 12:23:00,
2013-03-01 04:28:00,48.0,46.4,30.40,SW,231,0.0,0.0,94,0.00,,,0.00,0.0,WeatherDisplay:10.37,2013-03-01 12:28:00,
2013-03-01 04:33:00,48.0,46.4,30.40,SW,232,0.0,0.0,94,0.00,,,0.00,0.0,WeatherDisplay:10.37,2013-03-01 12:33:00,
2013-03-01 04:38:00,48.0,46.4,30.40,SW,232,0.0,0.0,94,0.00,,,0.00,0.0,WeatherDisplay:10.37,2013-03-01 12:38:00,
2013-03-01 04:43:00,47.9,46.3,30.40,SW,231,0.0,0.0,94,0.00,,,0.00,0.0,WeatherDisplay:10.37,2013-03-01 12:43:00,
2013-03-01 04:48:00,47.8,46.2,30.40,SW,232,0.0,0.0,94,0.00,,,0.00,0.0,WeatherDisplay:10.37,2013-03-01 12:48:00,
2013-03-01 04:53:00,47.6,45.7,30.40,SW,231,0.0,0.0,93,0.00,,,0.00,0.0,WeatherDisplay:10.37,2013-03-01 12:53:00,
2013-03-01 04:58:00,47.5,45.9,30.40,SW,232,0.0,0.0,94,0.00,,,0.00,0.0,WeatherDisplay:10.37,2013-03-01 12:58:00,
2013-03-01 05:03:00,47.4,45.8,30.40,SW,232,0.0,0.0,94,0.00,,,0.00,0.0,WeatherDisplay:10.37,2013-03-01 13:03:00,
2013-03-01 05:09:00,47.5,45.9,30.40,SW,232,0.0,0.0,94,0.00,,,0.00,0.0,WeatherDisplay:10.37,2013-03-01 13:09:00,
2013-03-01 05:14:00,47.4,45.8,30.40,SW,231,0.0,0.0,94,0.00,,,0.00,0.0,WeatherDisplay:10.37,2013-03-01 13:14:00,
2013-03-01 05:19:00,47.4,45.8,30.40,SW,231,0.0,0.0,94,0.00,,,0.00,0.0,WeatherDisplay:10.37,2013-03-01 13:19:00,
2013-03-01 05:24:00,47.3,45.7,30.40,SW,231,0.0,0.0,94,0.00,,,0.00,0.0,WeatherDisplay:10.37,2013-03-01 13:24:00,
2013-03-01 05:29:00,47.2,45.6,30.40,SW,232,0.0,0.0,94,0.00,,,0.00,0.0,WeatherDisplay:10.37,2013-03-01 13:29:00,
2013-03-01 05:34:00,47.2,45.6,30.39,SW,231,0.0,0.0,94,0.00,,,0.00,0.0,WeatherDisplay:10.37,2013-03-01 13:34:00,
2013-03-01 05:39:00,47.0,45.4,30.39,SW,232,0.0,0.0,94,0.00,,,0.00,0.0,WeatherDisplay:10.37,2013-03-01 13:39:00,
2013-03-01 05:44:00,47.0,45.4,30.39,SW,232,0.0,0.0,94,0.00,,,0.00,0.0,WeatherDisplay:10.37,2013-03-01 13:44:00,
2013-03-01 05:49:00,47.0,45.4,30.39,SW,231,0.0,0.0,94,0.00,,,0.00,0.0,WeatherDisplay:10.37,2013-03-01 13:49:00,
2013-03-01 05:54:00,47.0,45.4,30.39,SW,231,0.0,0.0,94,0.00,,,0.00,0.0,WeatherDisplay:10.37,2013-03-01 13:54:00,
2013-03-01 05:59:00,47.0,45.4,30.39,SW,231,0.0,0.0,94,0.00,,,0.00,0.0,WeatherDisplay:10.37,2013-03-01 13:59:00,
2013-03-01 06:04:00,47.1,45.5,30.39,SW,231,0.0,0.0,94,0.00,,,0.00,0.0,WeatherDisplay:10.37,2013-03-01 14:04:00,
2013-03-01 06:09:00,47.3,45.9,30.39,SW,231,0.0,0.0,95,0.00,,,0.00,0.0,WeatherDisplay:10.37,2013-03-01 14:09:00,
2013-03-01 06:14:00,47.4,45.8,30.39,SW,231,0.0,0.0,94,0.00,OVC,,0.00,0.0,WeatherDisplay:10.37,2013-03-01 14:14:00,
2013-03-01 06:19:00,47.5,46.1,30.39,SW,231,0.0,0.0,95,0.00,,,0.00,0.0,WeatherDisplay:10.37,2013-03-01 14:19:00,
2013-03-01 06:24:00,47.6,46.2,30.39,SW,232,0.0,0.0,95,0.00,,,0.00,0.0,WeatherDisplay:10.37,2013-03-01 14:24:00,
2013-03-01 06:29:00,47.7,46.3,30.39,SW,232,0.0,0.0,95,0.00,,,0.00,0.0,WeatherDisplay:10.37,2013-03-01 14:29:00,
2013-03-01 06:34:00,47.8,46.4,30.39,SW,231,0.0,0.0,95,0.00,,,0.00,0.0,WeatherDisplay:10.37,2013-03-01 14:34:00,
2013-03-01 06:39:00,47.9,46.5,30.39,SW,232,0.0,0.0,95,0.00,,,0.00,0.0,WeatherDisplay:10.37,2013-03-01 14:39:00,
2013-03-01 06:44:00,47.9,46.5,30.39,SW,232,0.0,0.0,95,0.00,,,0.00,0.0,WeatherDisplay:10.37,2013-03-01 14:44:00,
2013-03-01 06:49:00,48.1,46.7,30.38,SW,232,0.0,0.0,95,0.00,,,0.00,7.0,WeatherDisplay:10.37,2013-03-01 14:49:00,
2013-03-01 06:54:00,48.3,46.9,30.38,SW,232,0.0,0.0,95,0.00,,,0.00,9.0,WeatherDisplay:10.37,2013-03-01 14:54:00,
2013-03-01 06:59:00,48.6,47.5,30.38,SW,232,0.0,0.0,96,0.00,,,0.00,11.0,WeatherDisplay:10.37,2013-03-01 14:59:00,
2013-03-01 07:04:00,48.8,47.4,30.38,SW,232,0.0,0.0,95,0.00,,,0.00,14.0,WeatherDisplay:10.37,2013-03-01 15:04:00,
2013-03-01 07:09:00,48.9,47.5,30.38,SW,231,0.0,0.0,95,0.00,,,0.00,21.0,WeatherDisplay:10.37,2013-03-01 15:09:00,
2013-03-01 07:14:00,49.0,47.9,30.38,SW,232,0.0,0.0,96,0.00,,,0.00,25.0,WeatherDisplay:10.37,2013-03-01 15:14:00,
2013-03-01 07:19:00,49.2,48.1,30.38,SSW,209,0.0,0.0,96,0.00,,,0.00,32.0,WeatherDisplay:10.37,2013-03-01 15:19:00,
2013-03-01 07:24:00,49.2,47.8,30.38,SSW,209,0.0,0.0,95,0.00,,,0.00,33.0,WeatherDisplay:10.37,2013-03-01 15:24:00,
2013-03-01 07:29:00,49.2,47.8,30.38,SSW,209,0.0,0.0,95,0.00,,,0.00,39.0,WeatherDisplay:10.37,2013-03-01 15:29:00,
2013-03-01 07:34:00,49.2,47.8,30.38,SSW,209,0.0,0.0,95,0.00,CLR,,0.00,47.0,WeatherDisplay:10.37,2013-03-01 15:34:00,
2013-03-01 07:39:00,49.3,48.2,30.38,SSW,209,0.0,0.0,96,0.00,CLR,,0.00,49.0,WeatherDisplay:10.37,2013-03-01 15:39:00,
2013-03-01 07:44:00,49.4,48.3,30.38,SSW,209,0.0,0.0,96,0.00,CLR,,0.00,54.0,WeatherDisplay:10.37,2013-03-01 15:44:00,
2013-03-01 07:49:00,49.6,48.5,30.38,SSW,209,0.0,0.0,96,0.00,CLR,,0.00,62.0,WeatherDisplay:10.37,2013-03-01 15:49:00,
2013-03-01 07:54:00,49.8,48.7,30.37,SSE,167,0.0,0.0,96,0.00,CLR,,0.00,56.0,WeatherDisplay:10.37,2013-03-01 15:54:00,
2013-03-01 07:59:00,50.0,48.9,30.38,SSE,166,0.0,0.0,96,0.00,CLR,,0.00,62.0,WeatherDisplay:10.37,2013-03-01 15:59:00,
2013-03-01 08:04:00,50.2,49.1,30.37,South,169,0.0,0.0,96,0.00,CLR,,0.00,72.0,WeatherDisplay:10.37,2013-03-01 16:04:00,
2013-03-01 08:09:00,50.1,48.7,30.38,South,169,0.0,0.0,95,0.00,CLR,,0.00,77.0,WeatherDisplay:10.37,2013-03-01 16:09:00,
2013-03-01 08:14:00,49.9,48.5,30.38,South,169,0.0,0.0,95,0.00,CLR,,0.00,76.0,WeatherDisplay:10.37,2013-03-01 16:14:00,
2013-03-01 08:19:00,49.7,48.6,30.38,South,169,0.0,0.0,96,0.00,FEW,,0.00,90.0,WeatherDisplay:10.37,2013-03-01 16:19:00,
2013-03-01 08:24:00,50.0,48.9,30.38,South,169,0.0,0.0,96,0.00,CLR,,0.00,120.0,WeatherDisplay:10.37,2013-03-01 16:24:00,
2013-03-01 08:29:00,50.5,49.7,30.37,South,169,0.0,0.0,97,0.00,CLR,,0.00,104.0,WeatherDisplay:10.37,2013-03-01 16:29:00,
2013-03-01 08:34:00,51.0,50.2,30.38,South,169,0.0,0.0,97,0.00,FEW,,0.00,123.0,WeatherDisplay:10.37,2013-03-01 16:34:00,
2013-03-01 08:39:00,51.0,49.9,30.37,South,169,0.0,0.0,96,0.00,FEW,,0.00,121.0,WeatherDisplay:10.37,2013-03-01 16:39:00,
2013-03-01 08:44:00,51.0,49.9,30.38,South,180,0.0,0.0,96,0.00,SCT,,0.00,134.0,WeatherDisplay:10.37,2013-03-01 16:44:00,
2013-03-01 08:49:00,50.8,49.7,30.38,South,181,0.0,0.0,96,0.00,SCT,,0.00,141.0,WeatherDisplay:10.37,2013-03-01 16:49:00,
2013-03-01 08:54:00,50.8,49.7,30.38,South,181,0.0,0.0,96,0.00,SCT,,0.00,142.0,WeatherDisplay:10.37,2013-03-01 16:54:00,
2013-03-01 08:59:00,51.0,49.9,30.38,South,181,0.0,0.0,96,0.00,SCT,,0.00,160.0,WeatherDisplay:10.37,2013-03-01 16:59:00,
2013-03-01 09:04:00,50.9,49.8,30.38,South,181,0.0,0.0,96,0.00,FEW,,0.00,216.0,WeatherDisplay:10.37,2013-03-01 17:04:00,
2013-03-01 09:09:00,51.2,50.1,30.38,South,181,0.0,0.0,96,0.00,CLR,,0.00,188.0,WeatherDisplay:10.37,2013-03-01 17:09:00,
2013-03-01 09:15:00,51.3,50.2,30.38,South,181,0.0,0.0,96,0.00,CLR,,0.00,265.0,WeatherDisplay:10.37,2013-03-01 17:15:00,
2013-03-01 09:20:00,51.3,50.2,30.38,South,181,0.0,0.0,96,0.00,CLR,,0.00,278.0,WeatherDisplay:10.37,2013-03-01 17:20:00,
2013-03-01 09:25:00,51.5,50.4,30.38,South,181,0.0,0.0,96,0.00,CLR,,0.00,294.0,WeatherDisplay:10.37,2013-03-01 17:25:00,
2013-03-01 09:30:00,51.7,50.6,30.37,South,182,0.0,0.0,96,0.00,CLR,,0.00,255.0,WeatherDisplay:10.37,2013-03-01 17:30:00,
2013-03-01 09:35:00,51.9,50.8,30.37,South,182,0.0,0.0,96,0.00,CLR,,0.00,487.0,WeatherDisplay:10.37,2013-03-01 17:35:00,
2013-03-01 09:40:00,52.3,51.2,30.37,South,182,0.0,0.0,96,0.00,CLR,,0.00,536.0,WeatherDisplay:10.37,2013-03-01 17:40:00,
2013-03-01 09:45:00,52.6,51.5,30.37,South,182,0.0,0.0,96,0.00,CLR,,0.00,533.0,WeatherDisplay:10.37,2013-03-01 17:45:00,
2013-03-01 09:50:00,52.9,51.8,30.37,South,182,0.0,0.0,96,0.00,CLR,,0.00,526.0,WeatherDisplay:10.37,2013-03-01 17:50:00,
2013-03-01 09:55:00,53.4,52.3,30.37,South,182,0.0,0.0,96,0.00,CLR,,0.00,540.0,WeatherDisplay:10.37,2013-03-01 17:55:00,
2013-03-01 10:00:00,53.8,52.7,30.37,South,182,0.0,0.0,96,0.00,CLR,,0.00,554.0,WeatherDisplay:10.37,2013-03-01 18:00:00,
2013-03-01 10:05:00,54.4,53.0,30.37,South,182,0.0,0.0,95,0.00,CLR,,0.00,559.0,WeatherDisplay:10.37,2013-03-01 18:05:00,
2013-03-01 10:10:00,54.9,53.2,30.37,South,183,0.0,0.0,94,0.00,CLR,,0.00,568.0,WeatherDisplay:10.37,2013-03-01 18:10:00,
2013-03-01 10:15:00,55.4,53.7,30.37,South,183,0.0,0.0,94,0.00,CLR,,0.00,577.0,WeatherDisplay:10.37,2013-03-01 18:15:00,
2013-03-01 10:20:00,55.9,53.6,30.36,South,185,0.0,1.1,92,0.00,CLR,,0.00,589.0,WeatherDisplay:10.37,2013-03-01 18:20:00,
2013-03-01 10:25:00,56.3,53.7,30.37,West,278,0.0,0.0,91,0.00,CLR,,0.00,594.0,WeatherDisplay:10.37,2013-03-01 18:25:00,
2013-03-01 10:30:00,56.8,53.6,30.36,NE,54,0.0,0.0,89,0.00,CLR,,0.00,605.0,WeatherDisplay:10.37,2013-03-01 18:30:00,
2013-03-01 10:35:00,57.4,53.6,30.36,NE,56,0.0,0.0,87,0.00,CLR,,0.00,615.0,WeatherDisplay:10.37,2013-03-01 18:35:00,
2013-03-01 10:40:00,57.9,53.4,30.36,NE,56,0.0,0.0,85,0.00,CLR,,0.00,621.0,WeatherDisplay:10.37,2013-03-01 18:40:00,
2013-03-01 10:45:00,58.4,53.6,30.36,NE,56,0.0,0.0,84,0.00,CLR,,0.00,628.0,WeatherDisplay:10.37,2013-03-01 18:45:00,
2013-03-01 10:50:00,59.1,53.6,30.36,NE,56,0.0,0.0,82,0.00,CLR,,0.00,635.0,WeatherDisplay:10.37,2013-03-01 18:50:00,
2013-03-01 10:55:00,60.0,53.8,30.36,NE,56,0.0,0.0,80,0.00,CLR,,0.00,640.0,WeatherDisplay:10.37,2013-03-01 18:55:00,
2013-03-01 11:00:00,60.7,53.4,30.36,NE,56,0.0,1.1,77,0.00,CLR,,0.00,649.0,WeatherDisplay:10.37,2013-03-01 19:00:00,
2013-03-01 11:05:00,61.2,53.6,30.36,NE,56,0.0,0.0,76,0.00,CLR,,0.00,654.0,WeatherDisplay:10.37,2013-03-01 19:05:00,
2013-03-01 11:10:00,61.6,53.6,30.35,NE,56,0.0,0.0,75,0.00,CLR,,0.00,659.0,WeatherDisplay:10.37,2013-03-01 19:10:00,
2013-03-01 11:15:00,62.0,53.6,30.35,NE,47,1.0,4.0,74,0.00,CLR,,0.00,664.0,WeatherDisplay:10.37,2013-03-01 19:15:00,
2013-03-01 11:20:00,62.3,53.6,30.35,North,2,0.0,4.0,73,0.00,CLR,,0.00,670.0,WeatherDisplay:10.37,2013-03-01 19:20:00,
2013-03-01 11:25:00,62.5,53.0,30.35,North,358,0.9,4.6,71,0.00,CLR,,0.00,673.0,WeatherDisplay:10.37,2013-03-01 19:25:00,
2013-03-01 11:30:00,62.6,53.1,30.35,North,360,0.0,0.0,71,0.00,CLR,,0.00,677.0,WeatherDisplay:10.37,2013-03-01 19:30:00,
2013-03-01 11:35:00,63.0,53.4,30.35,NNE,27,0.1,1.1,71,0.00,CLR,,0.00,680.0,WeatherDisplay:10.37,2013-03-01 19:35:00,
2013-03-01 11:40:00,63.5,53.1,30.35,NNE,27,0.0,0.0,69,0.00,CLR,,0.00,684.0,WeatherDisplay:10.37,2013-03-01 19:40:00,
2013-03-01 11:45:00,64.0,53.2,30.34,NNE,15,0.0,0.0,68,0.00,CLR,,0.00,684.0,WeatherDisplay:10.37,2013-03-01 19:45:00,
2013-03-01 11:50:00,64.5,53.3,30.34,East,98,2.5,4.0,67,0.00,CLR,,0.00,687.0,WeatherDisplay:10.37,2013-03-01 19:50:00,
2013-03-01 11:55:00,64.7,53.5,30.33,East,100,0.3,3.5,67,0.00,CLR,,0.00,686.0,WeatherDisplay:10.37,2013-03-01 19:55:00,
2013-03-01 12:00:00,65.0,52.9,30.33,SW,225,0.9,3.5,65,0.00,CLR,,0.00,687.0,WeatherDisplay:10.37,2013-03-01 20:00:00,
2013-03-01 12:05:00,65.5,53.0,30.33,NE,55,0.4,3.5,64,0.00,CLR,,0.00,687.0,WeatherDisplay:10.37,2013-03-01 20:05:00,
2013-03-01 12:10:00,65.8,52.9,30.32,NNW,341,1.9,3.5,63,0.00,CLR,,0.00,686.0,WeatherDisplay:10.37,2013-03-01 20:10:00,
2013-03-01 12:15:00,66.0,53.0,30.32,ENE,57,0.2,1.1,63,0.00,CLR,,0.00,686.0,WeatherDisplay:10.37,2013-03-01 20:15:00,
2013-03-01 12:20:00,66.4,53.0,30.32,ENE,63,0.0,0.0,62,0.00,CLR,,0.00,682.0,WeatherDisplay:10.37,2013-03-01 20:20:00,
2013-03-01 12:25:00,67.2,52.8,30.32,ESE,117,2.3,3.5,60,0.00,CLR,,0.00,686.0,WeatherDisplay:10.37,2013-03-01 20:25:00,
2013-03-01 12:30:00,67.6,53.2,30.32,SE,125,3.2,4.6,60,0.00,CLR,,0.00,686.0,WeatherDisplay:10.37,2013-03-01 20:30:00,
2013-03-01 12:35:00,67.8,52.5,30.31,SE,125,2.3,3.5,58,0.00,CLR,,0.00,686.0,WeatherDisplay:10.37,2013-03-01 20:35:00,
2013-03-01 12:40:00,68.1,52.3,30.31,SE,125,0.7,3.5,57,0.00,CLR,,0.00,684.0,WeatherDisplay:10.37,2013-03-01 20:40:00,
2013-03-01 12:45:00,68.3,51.0,30.31,NNW,341,0.0,0.0,54,0.00,CLR,,0.00,680.0,WeatherDisplay:10.37,2013-03-01 20:45:00,
2013-03-01 12:51:00,68.6,50.8,30.30,East,101,0.0,0.0,53,0.00,CLR,,0.00,680.0,WeatherDisplay:10.37,2013-03-01 20:51:00,
2013-03-01 12:56:00,68.5,51.2,30.30,NE,46,0.0,2.3,54,0.00,CLR,,0.00,679.0,WeatherDisplay:10.37,2013-03-01 20:56:00,
2013-03-01 13:01:00,68.5,51.2,30.30,NE,49,0.1,3.5,54,0.00,CLR,,0.00,673.0,WeatherDisplay:10.37,2013-03-01 21:01:00,
2013-03-01 13:06:00,68.4,51.1,30.29,NE,55,1.5,4.6,54,0.00,CLR,,0.00,671.0,WeatherDisplay:10.37,2013-03-01 21:06:00,
2013-03-01 13:11:00,68.5,51.2,30.29,ENE,63,0.4,3.5,54,0.00,CLR,,0.00,671.0,WeatherDisplay:10.37,2013-03-01 21:11:00,
2013-03-01 13:16:00,68.9,51.1,30.29,ENE,58,0.0,0.0,53,0.00,CLR,,0.00,666.0,WeatherDisplay:10.37,2013-03-01 21:16:00,
2013-03-01 13:21:00,69.5,51.6,30.29,East,98,0.4,3.0,53,0.00,CLR,,0.00,659.0,WeatherDisplay:10.37,2013-03-01 21:21:00,
2013-03-01 13:26:00,69.9,51.5,30.28,ESE,114,0.0,0.0,52,0.00,CLR,,0.00,656.0,WeatherDisplay:10.37,2013-03-01 21:26:00,
2013-03-01 13:31:00,70.1,51.1,30.28,East,100,0.0,0.0,51,0.00,CLR,,0.00,601.0,WeatherDisplay:10.37,2013-03-01 21:31:00,
2013-03-01 13:36:00,70.2,51.2,30.28,East,98,1.0,3.5,51,0.00,FEW,,0.00,598.0,WeatherDisplay:10.37,2013-03-01 21:36:00,
2013-03-01 13:41:00,69.9,50.9,30.27,East,100,0.5,3.5,51,0.00,FEW,,0.00,652.0,WeatherDisplay:10.37,2013-03-01 21:41:00,
2013-03-01 13:46:00,69.8,50.9,30.27,East,100,0.0,0.0,51,0.00,CLR,,0.00,631.0,WeatherDisplay:10.37,2013-03-01 21:46:00,
2013-03-01 13:51:00,70.0,51.0,30.27,SSE,155,0.0,0.0,51,0.00,CLR,,0.00,617.0,WeatherDisplay:10.37,2013-03-01 21:51:00,
2013-03-01 13:56:00,70.4,50.9,30.27,NW,325,0.3,0.0,50,0.00,CLR,,0.00,613.0,WeatherDisplay:10.37,2013-03-01 21:56:00,
2013-03-01 14:01:00,70.9,50.8,30.26,ENE,59,0.1,3.5,49,0.00,CLR,,0.00,601.0,WeatherDisplay:10.37,2013-03-01 22:01:00,
2013-03-01 14:06:00,71.2,51.1,30.26,North,355,0.8,6.9,49,0.00,CLR,,0.00,555.0,WeatherDisplay:10.37,2013-03-01 22:06:00,
2013-03-01 14:11:00,71.2,51.1,30.26,NNW,346,1.3,3.5,49,0.00,FEW,,0.00,573.0,WeatherDisplay:10.37,2013-03-01 22:11:00,
2013-03-01 14:16:00,71.0,50.9,30.26,NNW,342,2.5,2.5,49,0.00,FEW,,0.00,577.0,WeatherDisplay:10.37,2013-03-01 22:16:00,
2013-03-01 14:21:00,70.9,50.8,30.25,NNW,342,0.0,1.1,49,0.00,CLR,,0.00,554.0,WeatherDisplay:10.37,2013-03-01 22:21:00,
2013-03-01 14:26:00,70.9,50.8,30.25,WNW,294,1.7,5.0,49,0.00,FEW,,0.00,529.0,WeatherDisplay:10.37,2013-03-01 22:26:00,
2013-03-01 14:31:00,71.0,50.9,30.25,NNW,346,0.0,2.0,49,0.00,FEW,,0.00,548.0,WeatherDisplay:10.37,2013-03-01 22:31:00,
2013-03-01 14:36:00,71.2,50.5,30.25,NNW,331,1.8,4.0,48,0.00,FEW,,0.00,490.0,WeatherDisplay:10.37,2013-03-01 22:36:00,
2013-03-01 14:41:00,71.2,50.5,30.25,WNW,282,0.0,0.0,48,0.00,FEW,,0.00,536.0,WeatherDisplay:10.37,2013-03-01 22:41:00,
2013-03-01 14:46:00,71.5,50.2,30.25,WNW,299,0.4,3.5,47,0.00,FEW,,0.00,522.0,WeatherDisplay:10.37,2013-03-01 22:46:00,
2013-03-01 14:51:00,71.7,50.4,30.25,NNW,343,0.7,3.5,47,0.00,FEW,,0.00,499.0,WeatherDisplay:10.37,2013-03-01 22:51:00,
2013-03-01 14:56:00,71.6,50.9,30.25,NW,306,4.3,8.1,48,0.00,FEW,,0.00,476.0,WeatherDisplay:10.37,2013-03-01 22:56:00,
2013-03-01 15:46:00,67.8,50.0,30.24,North,10,8.9,11.5,53,0.00,FEW,,0.00,274.0,WeatherDisplay:10.37,2013-03-01 23:46:00,
2013-03-01 15:51:00,67.0,50.3,30.24,North,351,2.6,10.4,55,0.00,SCT,,0.00,350.0,WeatherDisplay:10.37,2013-03-01 23:51:00,
2013-03-01 15:56:00,67.1,50.9,30.24,NW,310,1.4,1.4,56,0.00,SCT,,0.00,330.0,WeatherDisplay:10.37,2013-03-01 23:56:00,
2013-03-01 16:01:00,67.2,50.5,30.24,West,267,2.7,11.5,55,0.00,SCT,,0.00,325.0,WeatherDisplay:10.37,2013-03-02 00:01:00,
2013-03-01 16:06:00,67.4,50.7,30.24,WSW,246,7.3,9.2,55,0.00,SCT,,0.00,315.0,WeatherDisplay:10.37,2013-03-02 00:06:00,
2013-03-01 16:11:00,66.8,49.6,30.24,West,273,7.4,11.5,54,0.00,SCT,,0.00,295.0,WeatherDisplay:10.37,2013-03-02 00:11:00,
2013-03-01 16:16:00,66.4,49.2,30.24,WNW,282,5.6,12.7,54,0.00,SCT,,0.00,281.0,WeatherDisplay:10.37,2013-03-02 00:16:00,
2013-03-01 16:21:00,66.1,49.0,30.24,WNW,289,8.5,13.8,54,0.00,SCT,,0.00,251.0,WeatherDisplay:10.37,2013-03-02 00:21:00,
2013-03-01 16:26:00,66.0,48.9,30.23,SW,231,5.2,9.2,54,0.00,SCT,,0.00,239.0,WeatherDisplay:10.37,2013-03-02 00:26:00,
2013-03-01 16:31:00,66.0,48.9,30.23,North,10,5.4,11.5,54,0.00,SCT,,0.00,202.0,WeatherDisplay:10.37,2013-03-02 00:31:00,
2013-03-01 16:36:00,65.9,48.8,30.23,West,276,6.1,11.5,54,0.00,SCT,,0.00,225.0,WeatherDisplay:10.37,2013-03-02 00:36:00,
2013-03-01 16:41:00,65.8,48.7,30.23,North,10,4.4,6.9,54,0.00,SCT,,0.00,148.0,WeatherDisplay:10.37,2013-03-02 00:41:00,
2013-03-01 16:46:00,65.8,48.2,30.23,WNW,285,6.9,10.4,53,0.00,SCT,,0.00,167.0,WeatherDisplay:10.37,2013-03-02 00:46:00,
2013-03-01 16:51:00,66.0,48.9,30.23,NW,313,0.5,2.3,54,0.00,BKN,,0.00,109.0,WeatherDisplay:10.37,2013-03-02 00:51:00,
2013-03-01 16:56:00,66.2,48.6,30.23,WNW,296,0.1,1.1,53,0.00,BKN,,0.00,93.0,WeatherDisplay:10.37,2013-03-02 00:56:00,
2013-03-01 17:01:00,66.3,48.1,30.22,NW,305,1.1,4.6,52,0.00,BKN,,0.00,62.0,WeatherDisplay:10.37,2013-03-02 01:01:00,
2013-03-01 17:06:00,66.2,48.0,30.22,WNW,300,0.0,0.0,52,0.00,BKN,,0.00,84.0,WeatherDisplay:10.37,2013-03-02 01:06:00,
2013-03-01 17:11:00,66.0,48.4,30.22,NNW,341,0.0,0.0,53,0.00,BKN,,0.00,102.0,WeatherDisplay:10.37,2013-03-02 01:11:00,
2013-03-01 17:16:00,65.7,48.1,30.22,North,5,0.0,0.0,53,0.00,BKN,,0.00,86.0,WeatherDisplay:10.37,2013-03-02 01:16:00,
2013-03-01 17:21:00,65.6,48.0,30.22,North,5,0.0,0.0,53,0.00,BKN,,0.00,79.0,WeatherDisplay:10.37,2013-03-02 01:21:00,
2013-03-01 17:26:00,65.6,47.5,30.22,North,5,1.6,3.5,52,0.00,BKN,,0.00,56.0,WeatherDisplay:10.37,2013-03-02 01:26:00,
2013-03-01 17:31:00,65.5,47.4,30.22,NNW,337,1.2,2.3,52,0.00,BKN,,0.00,40.0,WeatherDisplay:10.37,2013-03-02 01:31:00,
2013-03-01 17:36:00,65.3,47.2,30.22,WNW,286,3.0,5.8,52,0.00,BKN,,0.00,44.0,WeatherDisplay:10.37,2013-03-02 01:36:00,
2013-03-01 17:41:00,65.2,47.1,30.22,NW,316,0.0,0.0,52,0.00,BKN,,0.00,37.0,WeatherDisplay:10.37,2013-03-02 01:41:00,
2013-03-01 17:46:00,65.0,47.9,30.22,NW,321,0.0,0.0,54,0.00,BKN,,0.00,28.0,WeatherDisplay:10.37,2013-03-02 01:46:00,
2013-03-01 17:51:00,64.6,48.1,30.22,NNW,334,1.9,3.5,55,0.00,BKN,,0.00,19.0,WeatherDisplay:10.37,2013-03-02 01:51:00,
2013-03-01 17:56:00,64.0,48.5,30.22,NNW,339,0.2,1.1,57,0.00,OVC,,0.00,11.0,WeatherDisplay:10.37,2013-03-02 01:56:00,
2013-03-01 18:01:00,63.7,48.2,30.22,NNW,341,0.0,0.0,57,0.00,OVC,,0.00,5.0,WeatherDisplay:10.37,2013-03-02 02:01:00,
2013-03-01 18:06:00,63.4,47.9,30.22,NNW,341,0.0,0.0,57,0.00,OVC,,0.00,0.0,WeatherDisplay:10.37,2013-03-02 02:06:00,
2013-03-01 18:12:00,63.1,48.1,30.21,NNW,341,0.0,0.0,58,0.00,OVC,,0.00,0.0,WeatherDisplay:10.37,2013-03-02 02:12:00,
2013-03-01 18:17:00,62.9,47.9,30.21,NNW,341,0.0,0.0,58,0.00,OVC,,0.00,0.0,WeatherDisplay:10.37,2013-03-02 02:17:00,
2013-03-01 18:22:00,62.7,47.7,30.22,NNW,341,0.0,0.0,58,0.00,OVC,,0.00,0.0,WeatherDisplay:10.37,2013-03-02 02:22:00,
2013-03-01 18:27:00,62.6,48.5,30.22,NNW,341,0.0,0.0,60,0.00,OVC,,0.00,0.0,WeatherDisplay:10.37,2013-03-02 02:27:00,
2013-03-01 18:32:00,62.4,48.8,30.22,West,259,0.0,0.0,61,0.00,OVC,,0.00,0.0,WeatherDisplay:10.37,2013-03-02 02:32:00,
2013-03-01 18:37:00,62.1,49.4,30.23,WSW,255,1.0,3.0,63,0.00,OVC,,0.00,0.0,WeatherDisplay:10.37,2013-03-02 02:37:00,
2013-03-01 18:42:00,61.6,49.3,30.23,SW,224,0.4,1.1,64,0.00,OVC,,0.00,0.0,WeatherDisplay:10.37,2013-03-02 02:42:00,
2013-03-01 18:47:00,61.3,49.0,30.23,SW,224,0.0,0.0,64,0.00,OVC,,0.00,0.0,WeatherDisplay:10.37,2013-03-02 02:47:00,
2013-03-01 18:52:00,61.1,49.2,30.23,SW,224,2.4,3.5,65,0.00,OVC,,0.00,0.0,WeatherDisplay:10.37,2013-03-02 02:52:00,
2013-03-01 18:57:00,60.7,49.3,30.23,SW,224,0.0,0.0,66,0.00,OVC,,0.00,0.0,WeatherDisplay:10.37,2013-03-02 02:57:00,
2013-03-01 19:02:00,60.5,49.5,30.23,SW,224,1.3,3.5,67,0.00,OVC,,0.00,0.0,WeatherDisplay:10.37,2013-03-02 03:02:00,
2013-03-01 19:07:00,60.1,49.5,30.23,SW,225,3.0,5.0,68,0.00,OVC,,0.00,0.0,WeatherDisplay:10.37,2013-03-02 03:07:00,
2013-03-01 19:12:00,59.7,49.5,30.23,SW,227,2.2,3.5,69,0.00,OVC,,0.00,0.0,WeatherDisplay:10.37,2013-03-02 03:12:00,
2013-03-01 19:17:00,59.3,49.1,30.23,SW,227,0.3,2.3,69,0.00,OVC,,0.00,0.0,WeatherDisplay:10.37,2013-03-02 03:17:00,
2013-03-01 19:22:00,59.0,49.2,30.23,SW,227,0.0,0.0,70,0.00,OVC,,0.00,0.0,WeatherDisplay:10.37,2013-03-02 03:22:00,
2013-03-01 19:27:00,58.8,49.4,30.24,SW,227,1.6,2.3,71,0.00,OVC,,0.00,0.0,WeatherDisplay:10.37,2013-03-02 03:27:00,
2013-03-01 19:32:00,58.6,49.2,30.24,SW,227,0.0,0.0,71,0.00,OVC,,0.00,0.0,WeatherDisplay:10.37,2013-03-02 03:32:00,
2013-03-01 19:37:00,58.3,49.3,30.24,SW,227,2.5,3.5,72,0.00,OVC,,0.00,0.0,WeatherDisplay:10.37,2013-03-02 03:37:00,
2013-03-01 19:42:00,58.0,49.0,30.24,SW,227,0.2,1.1,72,0.00,OVC,,0.00,0.0,WeatherDisplay:10.37,2013-03-02 03:42:00,
2013-03-01 19:47:00,57.8,49.2,30.24,SW,228,0.8,4.6,73,0.00,OVC,,0.00,0.0,WeatherDisplay:10.37,2013-03-02 03:47:00,
2013-03-01 19:52:00,57.5,48.9,30.24,SW,233,4.9,5.8,73,0.00,OVC,,0.00,0.0,WeatherDisplay:10.37,2013-03-02 03:52:00,
2013-03-01 19:57:00,56.9,48.7,30.24,WSW,239,2.1,3.5,74,0.00,OVC,,0.00,0.0,WeatherDisplay:10.37,2013-03-02 03:57:00,
2013-03-01 20:02:00,56.5,48.7,30.24,WSW,239,3.2,4.0,75,0.00,OVC,,0.00,0.0,WeatherDisplay:10.37,2013-03-02 04:02:00,
2013-03-01 20:07:00,56.2,48.7,30.25,WSW,239,2.6,3.5,76,0.00,OVC,,0.00,0.0,WeatherDisplay:10.37,2013-03-02 04:07:00,
2013-03-01 20:12:00,55.9,48.8,30.25,WSW,239,1.3,3.5,77,0.00,OVC,,0.00,0.0,WeatherDisplay:10.37,2013-03-02 04:12:00,
2013-03-01 20:17:00,55.6,48.8,30.25,WSW,239,0.0,0.0,78,0.00,OVC,,0.00,0.0,WeatherDisplay:10.37,2013-03-02 04:17:00,
2013-03-01 20:22:00,55.5,49.1,30.24,WSW,239,0.9,2.3,79,0.00,OVC,,0.00,0.0,WeatherDisplay:10.37,2013-03-02 04:22:00,
2013-03-01 20:27:00,55.4,49.0,30.24,WSW,240,1.1,1.1,79,0.00,OVC,,0.00,0.0,WeatherDisplay:10.37,2013-03-02 04:27:00,
2013-03-01 20:32:00,55.3,48.9,30.24,WSW,240,0.0,0.0,79,0.00,OVC,,0.00,0.0,WeatherDisplay:10.37,2013-03-02 04:32:00,
2013-03-01 20:37:00,55.2,49.1,30.24,WSW,240,0.0,0.0,80,0.00,OVC,,0.00,0.0,WeatherDisplay:10.37,2013-03-02 04:37:00,
2013-03-01 20:42:00,55.1,49.0,30.24,WSW,240,0.0,0.0,80,0.00,OVC,,0.00,0.0,WeatherDisplay:10.37,2013-03-02 04:42:00,
2013-03-01 20:47:00,55.1,49.0,30.23,WSW,240,0.1,1.1,80,0.00,OVC,,0.00,0.0,WeatherDisplay:10.37,2013-03-02 04:47:00,
2013-03-01 20:52:00,55.0,49.3,30.23,WSW,240,0.0,0.0,81,0.00,OVC,,0.00,0.0,WeatherDisplay:10.37,2013-03-02 04:52:00,
2013-03-01 20:57:00,55.0,48.9,30.24,WSW,240,0.0,0.0,80,0.00,OVC,,0.00,0.0,WeatherDisplay:10.37,2013-03-02 04:57:00,
2013-03-01 21:00:00,55.0,49.3,30.23,WSW,240,1.1,2.0,81,0.00,OVC,,0.00,0.0,WeatherDisplay:10.37,2013-03-02 05:00:00,
2013-03-01 21:06:00,55.0,49.3,30.24,WSW,248,3.1,4.6,81,0.00,OVC,,0.00,0.0,WeatherDisplay:10.37,2013-03-02 05:06:00,
2013-03-01 21:11:00,54.9,48.8,30.24,WSW,248,2.5,3.5,80,0.00,OVC,,0.00,0.0,WeatherDisplay:10.37,2013-03-02 05:11:00,
2013-03-01 21:16:00,54.7,49.0,30.24,WSW,248,0.0,1.0,81,0.00,OVC,,0.00,0.0,WeatherDisplay:10.37,2013-03-02 05:16:00,
2013-03-01 21:21:00,54.5,48.8,30.24,WSW,248,1.1,4.0,81,0.00,OVC,,0.00,0.0,WeatherDisplay:10.37,2013-03-02 05:21:00,
2013-03-01 21:26:00,54.1,48.4,30.24,WSW,249,0.6,1.1,81,0.00,OVC,,0.00,0.0,WeatherDisplay:10.37,2013-03-02 05:26:00,
2013-03-01 21:31:00,53.9,48.5,30.24,WSW,249,1.3,3.5,82,0.00,OVC,,0.00,0.0,WeatherDisplay:10.37,2013-03-02 05:31:00,
2013-03-01 21:36:00,53.6,48.2,30.24,WSW,248,0.3,2.3,82,0.00,OVC,,0.00,0.0,WeatherDisplay:10.37,2013-03-02 05:36:00,
2013-03-01 21:41:00,53.4,48.4,30.24,WSW,249,0.0,0.0,83,0.00,OVC,,0.00,0.0,WeatherDisplay:10.37,2013-03-02 05:41:00,
2013-03-01 21:46:00,53.3,48.3,30.24,WSW,248,0.0,0.0,83,0.00,OVC,,0.00,0.0,WeatherDisplay:10.37,2013-03-02 05:46:00,
2013-03-01 21:51:00,53.2,48.2,30.24,WSW,249,0.0,0.0,83,0.00,OVC,,0.00,0.0,WeatherDisplay:10.37,2013-03-02 05:51:00,
2013-03-01 21:56:00,53.1,48.4,30.24,WSW,248,0.0,0.0,84,0.00,OVC,,0.00,0.0,WeatherDisplay:10.37,2013-03-02 05:56:00,
2013-03-01 22:01:00,53.1,48.4,30.24,WSW,248,0.0,0.0,84,0.00,OVC,,0.00,0.0,WeatherDisplay:10.37,2013-03-02 06:01:00,
2013-03-01 22:06:00,53.1,48.4,30.24,WSW,249,0.0,0.0,84,0.00,OVC,,0.00,0.0,WeatherDisplay:10.37,2013-03-02 06:06:00,
2013-03-01 22:11:00,53.1,48.4,30.24,WSW,248,0.0,0.0,84,0.00,OVC,,0.00,0.0,WeatherDisplay:10.37,2013-03-02 06:11:00,
2013-03-01 22:16:00,53.0,48.3,30.24,WSW,249,0.0,0.0,84,0.00,OVC,,0.00,0.0,WeatherDisplay:10.37,2013-03-02 06:16:00,
2013-03-01 22:21:00,53.1,48.7,30.24,WSW,249,0.0,0.0,85,0.00,OVC,,0.00,0.0,WeatherDisplay:10.37,2013-03-02 06:21:00,
2013-03-01 22:26:00,53.2,48.8,30.23,WSW,248,0.0,0.0,85,0.00,OVC,,0.00,0.0,WeatherDisplay:10.37,2013-03-02 06:26:00,
2013-03-01 22:31:00,53.2,48.5,30.23,WSW,249,0.0,0.0,84,0.00,OVC,,0.00,0.0,WeatherDisplay:10.37,2013-03-02 06:31:00,
2013-03-01 22:36:00,53.2,48.5,30.23,WSW,248,0.0,0.0,84,0.00,OVC,,0.00,0.0,WeatherDisplay:10.37,2013-03-02 06:36:00,
2013-03-01 22:41:00,53.2,48.5,30.23,WSW,248,0.0,0.0,84,0.00,OVC,,0.00,0.0,WeatherDisplay:10.37,2013-03-02 06:41:00,
2013-03-01 22:46:00,53.2,48.5,30.23,WSW,249,0.0,0.0,84,0.00,OVC,,0.00,0.0,WeatherDisplay:10.37,2013-03-02 06:46:00,
2013-03-01 22:51:00,53.1,48.4,30.23,WSW,249,0.0,0.0,84,0.00,OVC,,0.00,0.0,WeatherDisplay:10.37,2013-03-02 06:51:00,
2013-03-01 22:56:00,53.1,48.4,30.23,WSW,249,0.0,0.0,84,0.00,OVC,,0.00,0.0,WeatherDisplay:10.37,2013-03-02 06:56:00,
2013-03-01 23:01:00,53.2,48.8,30.23,WSW,249,0.0,0.0,85,0.00,OVC,,0.00,0.0,WeatherDisplay:10.37,2013-03-02 07:01:00,
2013-03-01 23:06:00,53.2,48.5,30.22,WSW,248,0.0,0.0,84,0.00,OVC,,0.00,0.0,WeatherDisplay:10.37,2013-03-02 07:06:00,
2013-03-01 23:11:00,53.2,48.5,30.23,WSW,249,0.0,0.0,84,0.00,OVC,,0.00,0.0,WeatherDisplay:10.37,2013-03-02 07:11:00,
2013-03-01 23:16:00,53.3,48.9,30.23,WSW,249,0.0,0.0,85,0.00,OVC,,0.00,0.0,WeatherDisplay:10.37,2013-03-02 07:16:00,
2013-03-01 23:21:00,53.3,48.9,30.23,WSW,249,0.0,0.0,85,0.00,OVC,,0.00,0.0,WeatherDisplay:10.37,2013-03-02 07:21:00,
2013-03-01 23:26:00,53.3,48.6,30.23,WSW,248,0.0,0.0,84,0.00,OVC,,0.00,0.0,WeatherDisplay:10.37,2013-03-02 07:26:00,
2013-03-01 23:31:00,53.3,48.6,30.23,WSW,249,0.0,0.0,84,0.00,OVC,,0.00,0.0,WeatherDisplay:10.37,2013-03-02 07:31:00,
2013-03-01 23:36:00,53.3,48.6,30.23,WSW,249,0.0,0.0,84,0.00,OVC,,0.00,0.0,WeatherDisplay:10.37,2013-03-02 07:36:00,
2013-03-01 23:41:00,53.3,48.6,30.23,WSW,248,0.0,0.0,84,0.00,OVC,,0.00,0.0,WeatherDisplay:10.37,2013-03-02 07:41:00,
2013-03-01 23:46:00,53.2,48.5,30.22,WSW,248,0.0,0.0,84,0.00,OVC,,0.00,0.0,WeatherDisplay:10.37,2013-03-02 07:46:00,
2013-03-01 23:51:00,53.2,48.5,30.22,WSW,249,0.0,0.0,84,0.00,OVC,,0.00,0.0,WeatherDisplay:10.37,2013-03-02 07:51:00,
2013-03-01 23:56:00,53.2,48.8,30.22,WSW,249,0.0,0.0,85,0.00,OVC,,0.00,0.0,WeatherDisplay:10.37,2013-03-02 07:56:00,